Location: Green River State Wildlife Area
(41.6390°N, 89.5080°W)
Time: 13:18:49
(UTC-05:00)

Daily predictions for brighter satellites

Satellite Brightness Start Highest point End
(mag) Time Altitude Azimuth Time Altitude Azimuth Time Altitude Azimuth
SJ-11-01 4.4 21:05:22 10° SSE 21:10:07 90° ENE 21:14:54 10° NNW
Atlas Centaur 2 3.0 21:08:24 10° SSW 21:10:16 14° S 21:12:09 10° SE
SAR-Lupe-1 4.3 21:09:12 10° SSE 21:12:43 56° ENE 21:16:15 10° N
Cosmos 1980 3.8 21:08:53 10° NNW 21:14:37 89° ENE 21:20:18 10° SSE
Aureole 2 Rocket 2.8 21:11:03 10° NNW 21:15:13 89° WSW 21:19:08 10° SSE
Spot 1 4.0 21:11:47 10° SSE 21:15:52 87° WSW 21:20:02 10° NNW
Abrixas rocket 4.4 21:14:21 10° WNW 21:17:08 25° N 21:19:54 10° NE
Meteor 1-29 2.9 21:14:08 10° NNE 21:17:33 73° ESE 21:20:59 10° S
Cosmos 2221 3.5 21:14:04 10° NNE 21:17:59 31° ENE 21:21:53 10° SE
Cosmos 1378 4.1 21:14:43 10° SSW 21:18:23 51° W 21:22:06 10° N
Resurs 01 Rocket 3.8 21:16:15 10° SSW 21:19:52 25° W 21:23:30 10° NW
Cosmos 1242 Rocket 4.4 21:18:20 10° NNE 21:20:59 18° ENE 21:23:36 10° ESE
CZ-4B DEB 2.7 21:19:23 10° S 21:22:20 78° WSW 21:25:19 10° NNW
Envisat 3.8 21:19:30 10° S 21:24:27 52° W 21:29:25 10° NNW
ATLAS 5 CENTAUR R/B 2.5 21:21:34 10° S 21:25:33 29° ESE 21:29:49 10° NE
Cosmos 2237 Rocket 2.3 21:19:56 10° NNW 21:25:35 81° WSW 21:31:12 10° SSE
USA 32 4.1 21:22:27 10° S 21:27:37 63° E 21:32:48 10° N
Meteor 1-24 Rocket 3.9 21:26:29 10° S 21:32:28 86° W 21:38:18 10° N
Cosmos 1459 Rocket 4.5 21:31:03 10° N 21:37:04 45° ENE 21:42:28 12° SSE
Cosmos 1867 4.4 21:33:28 10° S 21:38:06 30° ESE 21:42:47 10° NE
Cosmos 1726 4.2 21:36:34 10° NE 21:38:27 13° ENE 21:40:16 10° E
Cosmos 2227 Rocket 2.7 21:34:57 10° SSW 21:40:33 66° WNW 21:46:12 10° NNE
Cosmos 1908 4.0 21:37:28 10° N 21:41:06 37° ENE 21:43:51 15° SE
Cosmos 1140 Rocket 3.5 21:36:40 10° SSW 21:41:51 88° ESE 21:47:02 10° NNE
YAOGAN 6 3.4 21:38:39 10° S 21:42:10 51° W 21:45:45 10° NNW
BREEZE-M DEB (TANK) 3.3 21:43:54 10° W 21:45:45 32° NNW 21:49:01 10° NE
H-2A R/B 4.3 21:44:20 10° E 21:46:19 13° ENE 21:48:17 10° NE
SL-16 R/B 2.3 21:41:51 10° NNW 21:47:31 66° ENE 21:52:08 15° SE
Cosmos 2173 Rocket 4.2 21:41:51 10° N 21:47:51 53° ENE 21:53:03 14° SSE
Cosmos 1674 3.0 21:46:51 13° SSE 21:49:59 45° E 21:53:36 10° NNE
Meteor 2-1 Rocket 4.5 21:44:35 10° NNW 21:50:27 76° W 21:56:10 10° S
Terra 3.5 21:48:44 12° ESE 21:51:45 20° ENE 21:55:14 10° NNE
RESURS DK-1 4.3 21:56:20 10° N 21:59:21 19° NE 22:01:57 12° E
Cosmos 1802 Rocket 4.1 21:54:41 10° N 22:00:44 57° E 22:05:24 17° SSE
ARGOS 3.2 21:57:54 15° SSE 22:02:31 81° ENE 22:07:58 10° NNW
Cosmos 2333 Rocket 4.0 21:59:39 10° NW 22:04:16 26° WSW 22:08:50 10° SSW
Cosmos 1850 Rocket 3.9 22:00:01 10° SSW 22:05:11 82° ESE 22:10:24 10° NNE
H-2A R/B 2.3 22:03:08 18° SE 22:06:54 58° ENE 22:12:12 10° N
MetOp-A 4.4 22:04:18 12° S 22:09:15 69° WSW 22:14:36 10° NNW
Cosmos 2219 Rocket 4.4 22:06:00 10° WNW 22:09:52 19° W 22:13:42 10° SW
Nimbus 7 Rocket 4.5 22:07:09 10° NNE 22:13:10 63° ESE 22:18:42 12° S
Cosmos 1818 3.6 22:09:17 10° NNW 22:14:45 82° ENE 22:18:13 23° SE
EO 1 Delta rocket 4.0 22:12:24 21° SSE 22:15:30 59° ENE 22:20:02 10° N
Cosmos 2084 3.2 22:11:34 10° SSW 22:15:31 58° ESE 22:19:19 10° NE
Meteor 1-21 Rocket 4.2 22:11:48 10° S 22:17:32 84° E 22:23:11 10° N
Cosmos 2227 4.5 22:15:28 15° S 22:19:57 47° ESE 22:25:25 10° NE
IGS 5A 4.5 22:19:32 23° ESE 22:21:18 32° ENE 22:25:01 10° N
USA 234 3.5 22:19:51 10° NE 22:26:23 74° NW 22:32:53 10° WSW
ERS-1 Rocket 4.3 22:21:59 10° SSW 22:26:34 35° W 22:31:12 10° NNW
Cosmos 1741 Rocket 4.4 22:22:59 10° SSW 22:28:16 66° WNW 22:33:35 10° NNE
SL-14 R/B 3.9 22:27:47 31° SE 22:28:57 40° E 22:32:41 10° NNE
Tiangong 1 0.5 22:26:49 10° WSW 22:29:36 83° SSE 22:30:19 45° E
Cosmos 1328 4.4 22:28:45 32° SE 22:29:57 40° E 22:33:45 10° NNE
DMSP B5D2-2 4.1 22:26:32 10° NNE 22:31:44 60° E 22:34:52 24° S
Cosmos 1408 Rocket 3.4 22:29:00 21° S 22:31:49 88° E 22:36:09 10° N
SL-08 RB Rocket 4.1 22:30:14 21° S 22:33:12 60° W 22:37:45 10° NNW
SPOT 5 3.4 22:30:25 18° S 22:33:45 55° W 22:38:40 10° NNW
Cosmos 2016 Rocket 4.0 22:31:49 10° N 22:38:08 88° W 22:42:13 23° S
Lacrosse 5 2.7 22:34:28 10° NW 22:39:20 44° NE 22:42:31 20° E
Cosmos 2297 Rocket 4.3 22:37:00 10° WSW 22:41:50 28° NW 22:46:41 10° N
SS 2 4.5 22:41:50 10° NW 22:44:44 81° SW 22:45:06 65° SSE
Cosmos 1500 Rocket 3.9 22:49:23 38° SE 22:50:34 49° E 22:54:53 10° NNE
Cosmos 1300 2.6 22:49:40 10° N 22:53:31 87° ENE 22:54:29 50° S
CZ-4B R/B 4.2 22:48:37 10° NNE 22:53:33 39° E 22:54:53 33° SE
Abrixas rocket 4.1 22:51:36 10° NW 22:54:29 28° NNE 22:56:33 15° ENE
Cosmos 1242 Rocket 4.3 22:52:48 10° NW 22:55:59 27° W 22:57:50 18° SW
Cosmos 2263 Rocket 2.9 22:55:55 31° ESE 22:56:49 32° ESE 23:01:43 10° NE
CARTOSAT-1 3.5 22:58:46 43° S 23:00:10 85° WSW 23:04:30 10° NNW
Cosmos 371 Rocket 3.3 22:56:42 10° NNW 23:01:31 68° ENE 23:03:03 42° SE
SPOT 1/Viking Rocket 4.4 22:58:40 21° SSW 23:01:42 42° W 23:06:35 10° NNW
Cosmos 2233 Rocket 4.0 22:58:28 10° N 23:04:41 66° E 23:07:19 35° SSE
Cosmos 2228 Rocket 3.2 23:00:47 10° N 23:05:23 79° W 23:06:55 42° S
Cosmos 1626 2.8 23:06:42 38° E 23:06:42 38° E 23:10:00 10° NNE
Cosmos 2058 3.0 23:08:56 51° SE 23:09:26 55° E 23:13:34 10° NNE
Cosmos 1814 Rocket 4.0 23:04:31 10° NNW 23:09:56 87° ENE 23:11:47 42° SSE
ATLAS 5 CENTAUR R/B 3.4 23:05:43 10° WSW 23:10:04 36° NW 23:14:49 10° NNE
Cosmos 1486 Rocket 4.0 23:09:22 40° S 23:11:11 65° ESE 23:16:27 10° NNE
Cosmos 1726 3.3 23:10:33 10° NNW 23:13:56 36° W 23:14:53 30° SW
Cosmos 1603 3.8 23:08:36 10° NNW 23:14:14 71° WSW 23:16:21 39° S
Cosmos 2151 2.9 23:13:30 56° SSE 23:14:19 75° E 23:18:37 10° NNE
ERBS 3.7 23:12:37 10° NNW 23:15:42 31° NE 23:16:20 29° ENE
CZ-4 R/B 3.7 23:11:18 10° NNE 23:16:13 77° ESE 23:17:40 45° S
Cosmos 1328 Rocket 4.0 23:12:17 10° NNW 23:16:32 52° W 23:17:51 37° SW
Cosmos 1515 Rocket 3.6 23:13:23 10° NNW 23:17:43 73° W 23:18:44 50° SSW
H-2A R/B 2.3 23:20:47 47° SSW 23:21:50 63° WSW 23:26:06 10° NNW
Cosmos 1743 Rocket 4.1 23:20:25 32° SW 23:22:08 53° W 23:26:24 10° N
Cosmos 1447 Rocket 4.5 23:19:36 34° S 23:22:35 85° E 23:28:58 10° N
Cosmos 841 Rocket 3.5 23:22:04 10° NNW 23:27:21 76° ENE 23:28:45 49° SE
Cosmos 1455 2.7 23:24:23 10° N 23:28:06 46° ENE 23:28:06 46° ENE
PSLV R/B 4.2 23:29:52 40° NW 23:29:52 40° NW 23:31:59 10° NNW
Terra 2.5 23:27:37 33° SW 23:29:10 44° W 23:33:44 10° NNW
SL-16 R/B 4.3 23:27:27 10° WNW 23:31:00 17° W 23:34:02 12° SW
Cosmos 1763 Rocket 3.4 23:27:31 10° NNW 23:32:38 76° WSW 23:33:51 52° S
Cosmos 1943 3.1 23:27:59 10° NNW 23:33:40 84° ENE 23:35:20 48° SSE
Cosmos 1703 3.1 23:34:35 81° S 23:34:46 90° ESE 23:38:46 10° N
Cosmos 1151 Rocket 3.3 23:30:55 10° NNW 23:35:15 61° W 23:36:02 51° SW
Cosmos 2285 Rocket 4.3 23:31:06 10° NNW 23:37:22 59° ENE 23:39:40 38° SE
RESURS DK-1 3.1 23:33:39 10° NW 23:37:35 41° WSW 23:37:52 41° WSW
SL-24 R/B 4.4 23:39:58 68° SSW 23:40:23 76° WSW 23:44:32 10° NNW
DELTA 2 DEB (DPAF) 4.1 23:41:56 64° SSW 23:42:32 77° WSW 23:47:02 10° NNW
BREEZE-M DEB 4.4 23:26:46 10° SW 23:43:26 59° SSE 23:47:39 10° ENE
Spot 4 4.1 23:44:38 49° SSW 23:45:38 61° W 23:50:29 10° NNW
H-2A R/B 4.2 23:43:45 12° SW 23:46:42 18° W 23:50:20 10° NW
CZ-4C R/B 3.7 23:50:53 20° E 23:50:53 20° E 23:54:04 10° ENE
